| time (UTC) | temp F | wind direction | speed MPH | gust MPH | rain 1hr in | rain 24hr in | rain mn in | humidity % | barometer mb |
| 20260906010014 | 79 | 230 | 2.0 | 4.0 | 0.00 | 0.20 | 0.20 | 74 | 1015.5 |
| 20260906005508 | 79 | 227 | 3.0 | 4.0 | 0.00 | 0.20 | 0.20 | 75 | 1015.5 |
| 20260906005006 | 80 | 227 | 3.0 | 3.0 | 0.00 | 0.20 | 0.20 | 74 | 1015.5 |
| 20260906004518 | 81 | 229 | 2.0 | 3.0 | 0.00 | 0.20 | 0.20 | 72 | 1015.5 |
| 20260906004021 | 82 | 229 | 2.0 | 3.0 | 0.00 | 0.20 | 0.20 | 69 | 1015.5 |
| 20260906003510 | 83 | 229 | 2.0 | 2.0 | 0.00 | 0.20 | 0.20 | 66 | 1015.5 |
| 20260906003005 | 84 | 227 | 2.0 | 2.0 | 0.00 | 0.20 | 0.20 | 63 | 1015.6 |
| 20260906002503 | 85 | 218 | 2.0 | 2.0 | 0.00 | 0.20 | 0.20 | 60 | 1015.5 |
| 20260906002011 | 86 | 218 | 1.0 | 2.0 | 0.00 | 0.20 | 0.20 | 61 | 1015.5 |
| 20260906001506 | 87 | 218 | 1.0 | 1.0 | 0.00 | 0.20 | 0.20 | 63 | 1015.6 |
| 20260906001005 | 88 | 218 | 1.0 | 2.0 | 0.00 | 0.20 | 0.20 | 59 | 1015.6 |
| 20260906000503 | 89 | 218 | 0.0 | 2.0 | 0.00 | 0.20 | 0.20 | 58 | 1015.6 |
| 20260906000031 | 90 | 218 | 0.0 | 1.0 | 0.00 | 0.20 | 0.20 | 59 | 1015.7 |
| 20260905235518 | 91 | 218 | 0.0 | 2.0 | 0.00 | 0.20 | 0.20 | 59 | 1015.7 |
| 20260905235019 | 91 | 218 | 0.0 | 2.0 | 0.00 | 0.20 | 0.20 | 56 | 1015.6 |
| 20260905234535 | 91 | 218 | 0.0 | 2.0 | 0.00 | 0.20 | 0.20 | 57 | 1015.6 |
| 20260905234011 | 92 | 218 | 0.0 | 2.0 | 0.00 | 0.20 | 0.20 | 61 | 1015.6 |
| 20260905233512 | 92 | 218 | 0.0 | 2.0 | 0.00 | 0.20 | 0.20 | 61 | 1015.6 |
| 20260905233023 | 91 | 218 | 0.0 | 2.0 | 0.00 | 0.20 | 0.20 | 59 | 1015.7 |
| 20260905232511 | 91 | 161 | 0.0 | 1.0 | 0.00 | 0.20 | 0.20 | 59 | 1015.7 |
| 20260905232011 | 91 | 138 | 0.0 | 1.0 | 0.00 | 0.20 | 0.20 | 58 | 1015.7 |
| 20260905231515 | 90 | 138 | 0.0 | 2.0 | 0.00 | 0.20 | 0.20 | 61 | 1015.8 |
| 20260905231015 | 90 | 138 | 0.0 | 2.0 | 0.00 | 0.20 | 0.20 | 52 | 1015.6 |
| 20260905230504 | 89 | 275 | 0.0 | 2.0 | 0.00 | 0.20 | 0.20 | 66 | 1015.6 |
| 20260905230008 | 88 | 275 | 0.0 | 2.0 | 0.00 | 0.20 | 0.20 | 61 | 1015.6 |
| 20260905225518 | 88 | 275 | 0.0 | 2.0 | 0.00 | 0.20 | 0.20 | 62 | 1015.7 |
| 20260905225004 | 87 | 275 | 0.0 | 2.0 | 0.00 | 0.20 | 0.20 | 66 | 1015.7 |
| 20260905224514 | 86 | 275 | 0.0 | 1.0 | 0.00 | 0.20 | 0.20 | 63 | 1015.6 |
| 20260905224008 | 86 | 275 | 0.0 | 1.0 | 0.00 | 0.20 | 0.20 | 69 | 1015.6 |
| 20260905223510 | 85 | 275 | 0.0 | 1.0 | 0.00 | 0.20 | 0.20 | 69 | 1015.6 |
| 20260905223023 | 84 | 275 | 0.0 | 2.0 | 0.00 | 0.20 | 0.20 | 82 | 1015.7 |
| 20260905222510 | 82 | 275 | 0.0 | 2.0 | 0.00 | 0.20 | 0.20 | 77 | 1015.6 |
| 20260905222017 | 81 | 275 | 0.0 | 2.0 | 0.00 | 0.20 | 0.20 | 84 | 1015.6 |
| 20260905221527 | 81 | 275 | 0.0 | 2.0 | 0.01 | 0.20 | 0.20 | 87 | 1015.6 |
| 20260905221020 | 80 | 275 | 0.0 | 1.0 | 0.03 | 0.20 | 0.20 | 89 | 1015.7 |
| 20260905220504 | 79 | 275 | 0.0 | 2.0 | 0.08 | 0.20 | 0.20 | 87 | 1015.6 |
| 20260905220032 | 79 | 275 | 0.0 | 2.0 | 0.18 | 0.20 | 0.20 | 87 | 1015.6 |
| 20260905215505 | 79 | 275 | 0.0 | 2.0 | 0.20 | 0.20 | 0.20 | 86 | 1015.7 |
| 20260905215016 | 79 | 275 | 0.0 | 2.0 | 0.20 | 0.20 | 0.20 | 85 | 1015.8 |
| 20260905214509 | 78 | 275 | 0.0 | 2.0 | 0.20 | 0.20 | 0.20 | 84 | 1015.9 |
| 20260905214006 | 78 | 275 | 0.0 | 2.0 | 0.20 | 0.20 | 0.20 | 82 | 1015.9 |
| 20260905213522 | 79 | 235 | 1.0 | 3.0 | 0.20 | 0.20 | 0.20 | 76 | 1016.0 |
| 20260905213020 | 79 | 240 | 1.0 | 6.0 | 0.20 | 0.20 | 0.20 | 76 | 1016.0 |
| 20260905212509 | 79 | 244 | 3.0 | 9.0 | 0.20 | 0.20 | 0.20 | 72 | 1015.9 |
| 20260905212013 | 79 | 228 | 3.0 | 9.0 | 0.20 | 0.20 | 0.20 | 71 | 1016.0 |
| 20260905211523 | 78 | 243 | 3.0 | 13.0 | 0.19 | 0.19 | 0.19 | 67 | 1016.3 |
| 20260905211011 | 80 | 269 | 7.0 | 26.0 | 0.17 | 0.17 | 0.17 | 57 | 1016.4 |
| 20260905210514 | 83 | 273 | 14.0 | 26.0 | 0.12 | 0.12 | 0.12 | 58 | 1016.6 |
| 20260905210042 | 91 | 273 | 10.0 | 15.0 | 0.02 | 0.02 | 0.02 | 51 | 1016.3 |
| 20260905205513 | 95 | 344 | 6.0 | 12.0 | 0.00 | 0.00 | 0.00 | 43 | 1016.2 |
| 20260905205015 | 95 | 37 | 4.0 | 9.0 | 0.00 | 0.00 | 0.00 | 39 | 1016.1 |
| 20260905204508 | 96 | 41 | 3.0 | 8.0 | 0.00 | 0.00 | 0.00 | 39 | 1016.2 |
| 20260905204018 | 97 | 327 | 3.0 | 7.0 | 0.00 | 0.00 | 0.00 | 38 | 1016.3 |
| 20260905203517 | 96 | 190 | 1.0 | 4.0 | 0.00 | 0.00 | 0.00 | 40 | 1016.5 |
| 20260905203014 | 96 | 196 | 2.0 | 8.0 | 0.00 | 0.00 | 0.00 | 40 | 1016.6 |
| 20260905202520 | 96 | 229 | 3.0 | 8.0 | 0.00 | 0.00 | 0.00 | 39 | 1016.6 |
| 20260905202009 | 95 | 238 | 4.0 | 7.0 | 0.00 | 0.00 | 0.00 | 40 | 1016.5 |
| 20260905201536 | 94 | 338 | 1.0 | 4.0 | 0.00 | 0.00 | 0.00 | 41 | 1016.4 |
| 20260905201011 | 94 | 253 | 2.0 | 4.0 | 0.00 | 0.00 | 0.00 | 42 | 1016.6 |
| 20260905200520 | 93 | 229 | 2.0 | 6.0 | 0.00 | 0.00 | 0.00 | 42 | 1017.0 |
| 20260905200028 | 93 | 329 | 1.0 | 6.0 | 0.00 | 0.00 | 0.00 | 42 | 1017.1 |
| 20260905195514 | 93 | 333 | 4.0 | 9.0 | 0.00 | 0.00 | 0.00 | 43 | 1017.2 |
| 20260905195017 | 93 | 22 | 3.0 | 9.0 | 0.00 | 0.00 | 0.00 | 43 | 1017.1 |
| 20260905194528 | 92 | 56 | 5.0 | 9.0 | 0.00 | 0.00 | 0.00 | 44 | 1017.0 |
| 20260905194014 | 92 | 136 | 3.0 | 6.0 | 0.00 | 0.00 | 0.00 | 44 | 1017.0 |
| 20260905193503 | 92 | 63 | 3.0 | 8.0 | 0.00 | 0.00 | 0.00 | 45 | 1017.0 |
| 20260905193031 | 92 | 352 | 1.0 | 8.0 | 0.00 | 0.00 | 0.00 | 45 | 1017.3 |
| 20260905192506 | 91 | 25 | 4.0 | 8.0 | 0.00 | 0.00 | 0.00 | 47 | 1017.5 |
| 20260905192007 | 91 | 346 | 0.0 | 7.0 | 0.00 | 0.00 | 0.00 | 46 | 1017.6 |
| 20260905191537 | 91 | 17 | 4.0 | 7.0 | 0.00 | 0.00 | 0.00 | 46 | 1017.6 |
| 20260905191010 | 91 | 334 | 3.0 | 5.0 | 0.00 | 0.00 | 0.00 | 47 | 1017.6 |
| 20260905190510 | 90 | 360 | 3.0 | 5.0 | 0.00 | 0.00 | 0.00 | 47 | 1017.6 |
| 20260905190024 | 90 | 321 | 2.0 | 5.0 | 0.00 | 0.00 | 0.00 | 46 | 1017.5 |
| 20260905185514 | 91 | 326 | 3.0 | 6.0 | 0.00 | 0.00 | 0.00 | 46 | 1017.6 |
| 20260905185017 | 92 | 344 | 3.0 | 8.0 | 0.00 | 0.00 | 0.00 | 46 | 1017.7 |
| 20260905184527 | 93 | 318 | 5.0 | 10.0 | 0.00 | 0.00 | 0.00 | 44 | 1018.0 |
| 20260905184016 | 93 | 290 | 6.0 | 10.0 | 0.00 | 0.00 | 0.00 | 44 | 1018.1 |
| 20260905183515 | 94 | 294 | 4.0 | 10.0 | 0.00 | 0.00 | 0.00 | 43 | 1018.1 |
| 20260905183032 | 95 | 15 | 4.0 | 8.0 | 0.00 | 0.00 | 0.00 | 42 | 1018.0 |
| 20260905182516 | 95 | 5 | 2.0 | 7.0 | 0.00 | 0.00 | 0.00 | 41 | 1018.0 |
| 20260905182015 | 95 | 192 | 4.0 | 9.0 | 0.00 | 0.00 | 0.00 | 42 | 1018.0 |
| 20260905181519 | 94 | 193 | 3.0 | 9.0 | 0.00 | 0.00 | 0.00 | 44 | 1018.1 |
| 20260905181019 | 94 | 103 | 4.0 | 9.0 | 0.00 | 0.00 | 0.00 | 44 | 1018.1 |
| 20260905180518 | 93 | 27 | 2.0 | 8.0 | 0.00 | 0.00 | 0.00 | 46 | 1018.4 |
| 20260905180034 | 94 | 130 | 3.0 | 10.0 | 0.00 | 0.00 | 0.00 | 45 | 1018.5 |
| 20260905175511 | 93 | 80 | 5.0 | 13.0 | 0.00 | 0.00 | 0.00 | 46 | 1018.5 |
| 20260905175004 | 93 | 14 | 7.0 | 13.0 | 0.00 | 0.00 | 0.00 | 45 | 1018.5 |
| 20260905174517 | 92 | 82 | 2.0 | 7.0 | 0.00 | 0.00 | 0.00 | 47 | 1018.5 |
| 20260905174004 | 91 | 348 | 1.0 | 11.0 | 0.00 | 0.00 | 0.00 | 47 | 1018.4 |
| 20260905173504 | 91 | 63 | 6.0 | 11.0 | 0.00 | 0.00 | 0.00 | 47 | 1018.6 |
| 20260905173008 | 91 | 55 | 5.0 | 10.0 | 0.00 | 0.00 | 0.00 | 47 | 1018.6 |
| 20260905172503 | 91 | 46 | 4.0 | 9.0 | 0.00 | 0.00 | 0.00 | 46 | 1018.6 |
| 20260905172006 | 91 | 40 | 3.0 | 9.0 | 0.00 | 0.00 | 0.00 | 47 | 1018.8 |
| 20260905171526 | 90 | 233 | 1.0 | 5.0 | 0.00 | 0.00 | 0.00 | 49 | 1018.8 |
| 20260905171007 | 89 | 121 | 2.0 | 11.0 | 0.00 | 0.00 | 0.00 | 50 | 1018.9 |
| 20260905170508 | 89 | 51 | 4.0 | 11.0 | 0.00 | 0.00 | 0.00 | 50 | 1018.9 |
| 20260905170032 | 89 | 40 | 3.0 | 9.0 | 0.00 | 0.00 | 0.00 | 51 | 1018.8 |
| 20260905165520 | 89 | 351 | 3.0 | 10.0 | 0.00 | 0.00 | 0.00 | 50 | 1018.8 |
| 20260905165005 | 90 | 70 | 6.0 | 10.0 | 0.00 | 0.00 | 0.00 | 49 | 1018.9 |
| 20260905164506 | 90 | 42 | 1.0 | 6.0 | 0.00 | 0.00 | 0.00 | 49 | 1019.0 |
| 20260905164003 | 90 | 299 | 3.0 | 10.0 | 0.00 | 0.00 | 0.00 | 49 | 1019.0 |
| 20260905163503 | 89 | 80 | 4.0 | 10.0 | 0.00 | 0.00 | 0.00 | 49 | 1018.9 |
| 20260905163006 | 89 | 264 | 3.0 | 8.0 | 0.00 | 0.00 | 0.00 | 50 | 1019.1 |
| 20260905162504 | 88 | 30 | 4.0 | 8.0 | 0.00 | 0.00 | 0.00 | 52 | 1019.1 |
| 20260905162003 | 87 | 333 | 3.0 | 6.0 | 0.00 | 0.00 | 0.00 | 53 | 1019.1 |
| 20260905161512 | 87 | 25 | 2.0 | 6.0 | 0.00 | 0.00 | 0.00 | 53 | 1019.2 |
| 20260905161006 | 88 | 60 | 4.0 | 6.0 | 0.00 | 0.00 | 0.00 | 53 | 1019.1 |
| 20260905160507 | 88 | 339 | 1.0 | 3.0 | 0.00 | 0.00 | 0.00 | 52 | 1019.1 |
| 20260905160032 | 88 | 241 | 2.0 | 3.0 | 0.00 | 0.00 | 0.00 | 53 | 1019.1 |
| 20260905155512 | 88 | 328 | 1.0 | 4.0 | 0.00 | 0.00 | 0.00 | 52 | 1019.0 |
| 20260905155014 | 88 | 237 | 0.0 | 7.0 | 0.00 | 0.00 | 0.00 | 52 | 1019.1 |
| 20260905154523 | 88 | 288 | 4.0 | 7.0 | 0.00 | 0.00 | 0.00 | 51 | 1019.2 |
| 20260905154012 | 89 | 332 | 2.0 | 6.0 | 0.00 | 0.00 | 0.00 | 51 | 1019.2 |
| 20260905153520 | 88 | 281 | 3.0 | 7.0 | 0.00 | 0.00 | 0.00 | 53 | 1019.1 |
| 20260905153004 | 88 | 338 | 2.0 | 7.0 | 0.00 | 0.00 | 0.00 | 52 | 1019.1 |
| 20260905152517 | 88 | 269 | 3.0 | 8.0 | 0.00 | 0.00 | 0.00 | 53 | 1019.1 |
| 20260905152004 | 88 | 352 | 4.0 | 8.0 | 0.00 | 0.00 | 0.00 | 53 | 1019.1 |
| 20260905151511 | 87 | 344 | 4.0 | 8.0 | 0.00 | 0.00 | 0.00 | 54 | 1019.1 |
| 20260905151009 | 87 | 277 | 3.0 | 7.0 | 0.00 | 0.00 | 0.00 | 53 | 1018.9 |
| 20260905150519 | 87 | 335 | 3.0 | 6.0 | 0.00 | 0.00 | 0.00 | 52 | 1018.9 |
| 20260905150013 | 87 | 217 | 2.0 | 7.0 | 0.00 | 0.00 | 0.00 | 54 | 1018.8 |
| 20260905145506 | 87 | 269 | 4.0 | 7.0 | 0.00 | 0.00 | 0.00 | 54 | 1018.7 |
| 20260905145008 | 87 | 205 | 3.0 | 8.0 | 0.00 | 0.00 | 0.00 | 54 | 1018.7 |
| 20260905144518 | 86 | 218 | 3.0 | 9.0 | 0.00 | 0.00 | 0.00 | 55 | 1018.7 |
| 20260905144014 | 86 | 229 | 4.0 | 9.0 | 0.00 | 0.00 | 0.00 | 55 | 1018.7 |
| 20260905143512 | 86 | 289 | 4.0 | 9.0 | 0.00 | 0.00 | 0.00 | 54 | 1018.6 |
| 20260905143034 | 86 | 295 | 6.0 | 9.0 | 0.00 | 0.00 | 0.00 | 56 | 1018.7 |
| 20260905142508 | 85 | 284 | 4.0 | 9.0 | 0.00 | 0.00 | 0.00 | 55 | 1018.8 |
| 20260905142020 | 85 | 298 | 5.0 | 9.0 | 0.00 | 0.00 | 0.00 | 55 | 1018.8 |
| 20260905141506 | 85 | 246 | 4.0 | 8.0 | 0.00 | 0.00 | 0.00 | 56 | 1018.6 |
| 20260905141003 | 85 | 310 | 3.0 | 9.0 | 0.00 | 0.00 | 0.00 | 56 | 1018.7 |
| 20260905140508 | 85 | 257 | 5.0 | 9.0 | 0.00 | 0.00 | 0.00 | 56 | 1018.8 |
| 20260905140015 | 85 | 294 | 2.0 | 7.0 | 0.00 | 0.00 | 0.00 | 57 | 1018.8 |
| 20260905135507 | 85 | 221 | 2.0 | 7.0 | 0.00 | 0.00 | 0.00 | 58 | 1018.8 |
| 20260905135006 | 84 | 230 | 3.0 | 9.0 | 0.00 | 0.00 | 0.00 | 58 | 1018.8 |
| 20260905134518 | 84 | 282 | 5.0 | 9.0 | 0.00 | 0.00 | 0.00 | 58 | 1018.9 |
| 20260905134010 | 84 | 247 | 4.0 | 8.0 | 0.00 | 0.00 | 0.00 | 59 | 1018.8 |
| 20260905133510 | 83 | 273 | 4.0 | 7.0 | 0.00 | 0.00 | 0.00 | 60 | 1018.7 |
| 20260905133026 | 83 | 229 | 3.0 | 6.0 | 0.00 | 0.00 | 0.00 | 61 | 1018.7 |
| 20260905132514 | 82 | 249 | 2.0 | 5.0 | 0.00 | 0.00 | 0.00 | 63 | 1018.7 |
| 20260905132021 | 81 | 255 | 2.0 | 5.0 | 0.00 | 0.00 | 0.00 | 64 | 1018.7 |
| 20260905131535 | 80 | 254 | 2.0 | 5.0 | 0.00 | 0.00 | 0.00 | 66 | 1018.7 |
| 20260905131003 | 79 | 284 | 3.0 | 4.0 | 0.00 | 0.00 | 0.00 | 69 | 1018.6 |
| 20260905130503 | 78 | 268 | 1.0 | 2.0 | 0.00 | 0.00 | 0.00 | 71 | 1018.6 |
| 20260905130010 | 77 | 247 | 1.0 | 2.0 | 0.00 | 0.00 | 0.00 | 73 | 1018.5 |
| 20260905125504 | 76 | 257 | 0.0 | 2.0 | 0.00 | 0.00 | 0.00 | 75 | 1018.5 |
| 20260905125006 | 75 | 263 | 0.0 | 2.0 | 0.00 | 0.00 | 0.00 | 77 | 1018.4 |
| 20260905124514 | 74 | 249 | 0.0 | 2.0 | 0.00 | 0.00 | 0.00 | 77 | 1018.4 |
| 20260905124007 | 73 | 254 | 0.0 | 2.0 | 0.00 | 0.00 | 0.00 | 79 | 1018.4 |
| 20260905123512 | 73 | 250 | 1.0 | 2.0 | 0.00 | 0.00 | 0.00 | 80 | 1018.4 |
| 20260905123034 | 72 | 239 | 0.0 | 2.0 | 0.00 | 0.00 | 0.00 | 81 | 1018.4 |
| 20260905122510 | 71 | 275 | 1.0 | 2.0 | 0.00 | 0.00 | 0.00 | 82 | 1018.3 |
| 20260905122018 | 71 | 261 | 1.0 | 2.0 | 0.00 | 0.00 | 0.00 | 83 | 1018.3 |
| 20260905121535 | 70 | 241 | 1.0 | 2.0 | 0.00 | 0.00 | 0.00 | 83 | 1018.2 |
| 20260905121018 | 70 | 224 | 1.0 | 2.0 | 0.00 | 0.00 | 0.00 | 83 | 1018.2 |
| 20260905120516 | 71 | 224 | 1.0 | 2.0 | 0.00 | 0.00 | 0.00 | 83 | 1018.1 |
| 20260905120019 | 71 | 224 | 1.0 | 2.0 | 0.00 | 0.00 | 0.00 | 82 | 1018.1 |
| 20260905115505 | 71 | 224 | 2.0 | 2.0 | 0.00 | 0.00 | 0.00 | 82 | 1018.1 |
| 20260905115004 | 71 | 224 | 2.0 | 2.0 | 0.00 | 0.00 | 0.00 | 82 | 1018.0 |
| 20260905114518 | 71 | 224 | 1.0 | 1.0 | 0.00 | 0.00 | 0.00 | 81 | 1018.0 |
| 20260905114008 | 71 | 224 | 1.0 | 1.0 | 0.00 | 0.00 | 0.00 | 81 | 1017.9 |
| 20260905113507 | 71 | 224 | 0.0 | 2.0 | 0.00 | 0.00 | 0.00 | 81 | 1017.8 |
| 20260905113016 | 72 | 224 | 1.0 | 2.0 | 0.00 | 0.00 | 0.00 | 80 | 1017.9 |
| 20260905112508 | 72 | 224 | 2.0 | 2.0 | 0.00 | 0.00 | 0.00 | 80 | 1017.9 |
| 20260905112016 | 72 | 224 | 2.0 | 2.0 | 0.00 | 0.00 | 0.00 | 79 | 1017.9 |
| 20260905111526 | 73 | 224 | 1.0 | 2.0 | 0.00 | 0.00 | 0.00 | 79 | 1018.0 |
| 20260905111012 | 73 | 224 | 0.0 | 2.0 | 0.00 | 0.00 | 0.00 | 78 | 1017.9 |
| 20260905110513 | 73 | 224 | 0.0 | 2.0 | 0.00 | 0.00 | 0.00 | 78 | 1018.0 |
| 20260905110029 | 73 | 211 | 0.0 | 2.0 | 0.00 | 0.00 | 0.00 | 78 | 1017.9 |
| 20260905105516 | 73 | 211 | 0.0 | 2.0 | 0.00 | 0.00 | 0.00 | 78 | 1017.9 |
| 20260905105013 | 73 | 211 | 0.0 | 1.0 | 0.00 | 0.00 | 0.00 | 78 | 1017.8 |
| 20260905104518 | 73 | 211 | 1.0 | 1.0 | 0.00 | 0.00 | 0.00 | 78 | 1017.8 |
| 20260905104008 | 73 | 211 | 1.0 | 1.0 | 0.00 | 0.00 | 0.00 | 78 | 1017.8 |
| 20260905103507 | 73 | 211 | 1.0 | 1.0 | 0.00 | 0.00 | 0.00 | 77 | 1017.8 |
| 20260905103015 | 74 | 211 | 1.0 | 1.0 | 0.00 | 0.00 | 0.00 | 77 | 1017.9 |
| 20260905102511 | 74 | 211 | 0.0 | 2.0 | 0.00 | 0.00 | 0.00 | 77 | 1017.8 |
| 20260905102008 | 74 | 211 | 1.0 | 2.0 | 0.00 | 0.00 | 0.00 | 77 | 1017.9 |
| 20260905101523 | 74 | 211 | 0.0 | 2.0 | 0.00 | 0.00 | 0.00 | 76 | 1017.9 |
| 20260905101011 | 74 | 210 | 0.0 | 2.0 | 0.00 | 0.00 | 0.00 | 76 | 1017.9 |
| 20260905100512 | 74 | 210 | 0.0 | 0.0 | 0.00 | 0.00 | 0.00 | 76 | 1017.9 |
| 20260905100026 | 74 | 210 | 0.0 | 1.0 | 0.00 | 0.00 | 0.00 | 76 | 1017.9 |
| 20260905095514 | 74 | 210 | 0.0 | 2.0 | 0.00 | 0.00 | 0.00 | 75 | 1017.9 |
| 20260905095016 | 74 | 210 | 0.0 | 2.0 | 0.00 | 0.00 | 0.00 | 75 | 1017.9 |
| 20260905094611 | 74 | 210 | 0.0 | 0.0 | 0.00 | 0.00 | 0.00 | 75 | 1017.9 |
| 20260905094017 | 74 | 210 | 0.0 | 0.0 | 0.00 | 0.00 | 0.00 | 75 | 1017.9 |
| 20260905093517 | 74 | 210 | 0.0 | 0.0 | 0.00 | 0.00 | 0.00 | 75 | 1017.8 |
| 20260905093015 | 74 | 210 | 0.0 | 2.0 | 0.00 | 0.00 | 0.00 | 75 | 1017.9 |
| 20260905092510 | 74 | 210 | 0.0 | 2.0 | 0.00 | 0.00 | 0.00 | 75 | 1017.8 |
| 20260905092011 | 74 | 210 | 0.0 | 2.0 | 0.00 | 0.00 | 0.00 | 75 | 1017.8 |
| 20260905091518 | 74 | 210 | 0.0 | 2.0 | 0.00 | 0.00 | 0.00 | 75 | 1017.8 |
| 20260905091013 | 74 | 221 | 0.0 | 2.0 | 0.00 | 0.00 | 0.00 | 75 | 1017.8 |
| 20260905090510 | 74 | 221 | 0.0 | 2.0 | 0.00 | 0.00 | 0.00 | 75 | 1017.6 |
| 20260905090031 | 74 | 221 | 0.0 | 2.0 | 0.00 | 0.00 | 0.00 | 75 | 1017.6 |
| 20260905085503 | 74 | 221 | 0.0 | 1.0 | 0.00 | 0.00 | 0.00 | 75 | 1017.6 |
| 20260905085003 | 74 | 221 | 0.0 | 1.0 | 0.00 | 0.00 | 0.00 | 75 | 1017.6 |
| 20260905084506 | 74 | 232 | 1.0 | 2.0 | 0.00 | 0.00 | 0.00 | 75 | 1017.6 |
| 20260905084003 | 74 | 229 | 0.0 | 2.0 | 0.00 | 0.00 | 0.00 | 75 | 1017.5 |
| 20260905083504 | 74 | 238 | 1.0 | 2.0 | 0.00 | 0.00 | 0.00 | 75 | 1017.5 |
| 20260905083010 | 74 | 211 | 0.0 | 3.0 | 0.00 | 0.00 | 0.00 | 75 | 1017.5 |
| 20260905082504 | 74 | 233 | 1.0 | 3.0 | 0.00 | 0.00 | 0.00 | 75 | 1017.5 |
| 20260905082006 | 74 | 213 | 1.0 | 2.0 | 0.00 | 0.00 | 0.00 | 75 | 1017.5 |
| 20260905081510 | 74 | 192 | 0.0 | 2.0 | 0.00 | 0.00 | 0.00 | 75 | 1017.5 |
| 20260905081004 | 74 | 238 | 0.0 | 2.0 | 0.00 | 0.00 | 0.00 | 75 | 1017.5 |
| 20260905080506 | 74 | 238 | 0.0 | 2.0 | 0.00 | 0.00 | 0.00 | 75 | 1017.5 |
| 20260905080006 | 74 | 238 | 0.0 | 2.0 | 0.00 | 0.00 | 0.00 | 75 | 1017.6 |
| 20260905075502 | 74 | 244 | 0.0 | 2.0 | 0.00 | 0.00 | 0.00 | 75 | 1017.6 |
| 20260905075004 | 74 | 229 | 1.0 | 2.0 | 0.00 | 0.00 | 0.00 | 75 | 1017.6 |
| 20260905074506 | 74 | 223 | 0.0 | 2.0 | 0.00 | 0.00 | 0.00 | 75 | 1017.5 |
| 20260905074005 | 74 | 237 | 1.0 | 2.0 | 0.00 | 0.00 | 0.00 | 75 | 1017.6 |
| 20260905073504 | 74 | 228 | 0.0 | 2.0 | 0.00 | 0.00 | 0.00 | 74 | 1017.5 |
| 20260905073011 | 74 | 231 | 1.0 | 2.0 | 0.00 | 0.00 | 0.00 | 74 | 1017.5 |
| 20260905072508 | 74 | 231 | 0.0 | 1.0 | 0.00 | 0.00 | 0.00 | 74 | 1017.5 |
| 20260905072006 | 75 | 231 | 1.0 | 2.0 | 0.00 | 0.00 | 0.00 | 73 | 1017.5 |
| 20260905071510 | 75 | 231 | 1.0 | 2.0 | 0.00 | 0.00 | 0.00 | 73 | 1017.6 |
| 20260905071003 | 75 | 236 | 1.0 | 2.0 | 0.00 | 0.00 | 0.00 | 72 | 1017.6 |
| 20260905070503 | 76 | 221 | 1.0 | 2.0 | 0.00 | 0.00 | 0.00 | 72 | 1017.7 |
| 20260905070015 | 76 | 221 | 1.0 | 2.0 | 0.00 | 0.00 | 0.00 | 71 | 1017.7 |
| 20260905065505 | 76 | 221 | 0.0 | 2.0 | 0.00 | 0.00 | 0.00 | 70 | 1017.7 |
| 20260905065005 | 76 | 221 | 1.0 | 2.0 | 0.00 | 0.00 | 0.00 | 70 | 1017.7 |
| 20260905064503 | 76 | 234 | 0.0 | 2.0 | 0.00 | 0.00 | 0.00 | 70 | 1017.9 |
| 20260905064004 | 76 | 229 | 0.0 | 2.0 | 0.00 | 0.00 | 0.00 | 70 | 1018.0 |
| 20260905063504 | 76 | 215 | 0.0 | 2.0 | 0.00 | 0.00 | 0.00 | 70 | 1017.9 |
| 20260905063007 | 77 | 181 | 0.0 | 2.0 | 0.00 | 0.00 | 0.00 | 69 | 1018.0 |
| 20260905062506 | 77 | 221 | 0.0 | 2.0 | 0.00 | 0.00 | 0.00 | 69 | 1018.1 |
| 20260905062006 | 77 | 228 | 0.0 | 2.0 | 0.00 | 0.00 | 0.00 | 69 | 1018.1 |
| 20260905061519 | 77 | 202 | 0.0 | 2.0 | 0.00 | 0.00 | 0.00 | 69 | 1018.1 |
| 20260905061007 | 77 | 202 | 0.0 | 2.0 | 0.00 | 0.00 | 0.00 | 69 | 1018.1 |
| 20260905060508 | 77 | 202 | 0.0 | 2.0 | 0.00 | 0.00 | 0.00 | 68 | 1018.1 |
| 20260905060029 | 78 | 202 | 0.0 | 2.0 | 0.00 | 0.00 | 0.00 | 68 | 1018.2 |
| 20260905055507 | 78 | 186 | 0.0 | 2.0 | 0.00 | 0.00 | 0.00 | 67 | 1018.2 |
| 20260905055008 | 78 | 187 | 1.0 | 2.0 | 0.00 | 0.00 | 0.00 | 67 | 1018.1 |
| 20260905054522 | 78 | 208 | 0.0 | 2.0 | 0.00 | 0.00 | 0.00 | 67 | 1018.1 |
| 20260905054006 | 78 | 208 | 0.0 | 2.0 | 0.00 | 0.00 | 0.00 | 67 | 1018.1 |
| 20260905053504 | 78 | 208 | 0.0 | 2.0 | 0.00 | 0.00 | 0.00 | 66 | 1018.1 |
| 20260905053004 | 79 | 208 | 0.0 | 2.0 | 0.00 | 0.00 | 0.00 | 66 | 1018.0 |
| 20260905052504 | 79 | 198 | 0.0 | 2.0 | 0.00 | 0.00 | 0.00 | 66 | 1018.1 |
| 20260905052006 | 79 | 211 | 0.0 | 3.0 | 0.00 | 0.00 | 0.00 | 66 | 1018.1 |
| 20260905051526 | 79 | 213 | 1.0 | 5.0 | 0.00 | 0.00 | 0.00 | 65 | 1018.0 |
| 20260905051007 | 79 | 194 | 1.0 | 5.0 | 0.00 | 0.00 | 0.00 | 65 | 1018.1 |
| 20260905050504 | 79 | 182 | 1.0 | 4.0 | 0.00 | 0.00 | 0.00 | 65 | 1018.0 |
| 20260905050014 | 79 | 150 | 1.0 | 4.0 | 0.00 | 0.00 | 0.00 | 65 | 1018.0 |
| 20260905045513 | 79 | 186 | 1.0 | 4.0 | 0.00 | 0.00 | 0.00 | 65 | 1018.0 |
| 20260905045008 | 79 | 218 | 2.0 | 7.0 | 0.00 | 0.00 | 0.00 | 66 | 1017.9 |
| 20260905044516 | 78 | 176 | 1.0 | 8.0 | 0.00 | 0.00 | 0.00 | 66 | 1017.9 |
| 20260905044010 | 78 | 169 | 3.0 | 8.0 | 0.00 | 0.00 | 0.00 | 67 | 1017.9 |
| 20260905043511 | 78 | 209 | 1.0 | 4.0 | 0.00 | 0.00 | 0.00 | 67 | 1017.9 |
| 20260905043019 | 77 | 208 | 2.0 | 4.0 | 0.00 | 0.00 | 0.00 | 68 | 1017.9 |
| 20260905042507 | 77 | 181 | 1.0 | 3.0 | 0.00 | 0.00 | 0.00 | 68 | 1017.9 |
| 20260905042004 | 77 | 157 | 1.0 | 2.0 | 0.00 | 0.00 | 0.00 | 68 | 1017.8 |
| 20260905041509 | 78 | 223 | 1.0 | 3.0 | 0.00 | 0.00 | 0.00 | 67 | 1018.0 |
| 20260905041006 | 78 | 219 | 1.0 | 3.0 | 0.00 | 0.00 | 0.00 | 67 | 1018.0 |
| 20260905040505 | 78 | 232 | 2.0 | 3.0 | 0.00 | 0.00 | 0.00 | 66 | 1017.9 |
| 20260905040017 | 79 | 225 | 1.0 | 2.0 | 0.00 | 0.00 | 0.00 | 66 | 1018.1 |
| 20260905035509 | 79 | 227 | 1.0 | 2.0 | 0.00 | 0.00 | 0.00 | 65 | 1018.1 |
| 20260905035010 | 79 | 207 | 0.0 | 2.0 | 0.00 | 0.00 | 0.00 | 64 | 1018.2 |
| 20260905034523 | 79 | 225 | 1.0 | 2.0 | 0.00 | 0.00 | 0.00 | 64 | 1018.1 |
| 20260905034012 | 79 | 232 | 1.0 | 5.0 | 0.00 | 0.00 | 0.00 | 64 | 1018.1 |
| 20260905033510 | 80 | 205 | 1.0 | 7.0 | 0.00 | 0.00 | 0.00 | 63 | 1018.1 |
| 20260905033020 | 80 | 196 | 1.0 | 7.0 | 0.00 | 0.00 | 0.00 | 62 | 1018.1 |
| 20260905032510 | 80 | 174 | 1.0 | 4.0 | 0.00 | 0.00 | 0.00 | 62 | 1018.0 |
| 20260905032013 | 80 | 162 | 2.0 | 4.0 | 0.00 | 0.00 | 0.00 | 61 | 1018.0 |
| 20260905031533 | 81 | 215 | 1.0 | 3.0 | 0.00 | 0.00 | 0.00 | 61 | 1018.0 |
| 20260905031012 | 81 | 145 | 1.0 | 3.0 | 0.00 | 0.00 | 0.00 | 60 | 1017.9 |
| 20260905030505 | 81 | 205 | 1.0 | 2.0 | 0.00 | 0.00 | 0.00 | 59 | 1017.9 |
| 20260905030013 | 81 | 215 | 0.0 | 4.0 | 0.00 | 0.00 | 0.00 | 59 | 1017.8 |
| 20260905025507 | 81 | 175 | 1.0 | 4.0 | 0.00 | 0.00 | 0.00 | 59 | 1017.8 |
| 20260905025008 | 81 | 192 | 1.0 | 4.0 | 0.00 | 0.00 | 0.00 | 59 | 1017.8 |
| 20260905024537 | 82 | 226 | 2.0 | 5.0 | 0.00 | 0.00 | 0.00 | 59 | 1017.8 |
| 20260905024010 | 82 | 181 | 1.0 | 5.0 | 0.00 | 0.00 | 0.00 | 59 | 1017.7 |
| 20260905023511 | 82 | 188 | 1.0 | 4.0 | 0.00 | 0.00 | 0.00 | 58 | 1017.6 |
| 20260905023026 | 82 | 195 | 2.0 | 6.0 | 0.00 | 0.00 | 0.00 | 58 | 1017.7 |
| 20260905022511 | 82 | 208 | 2.0 | 6.0 | 0.00 | 0.00 | 0.00 | 58 | 1017.7 |
| 20260905022012 | 82 | 215 | 3.0 | 7.0 | 0.00 | 0.00 | 0.00 | 58 | 1017.5 |
| 20260905021526 | 82 | 194 | 3.0 | 7.0 | 0.00 | 0.00 | 0.00 | 58 | 1017.5 |
| 20260905021011 | 83 | 204 | 1.0 | 7.0 | 0.00 | 0.00 | 0.00 | 57 | 1017.5 |
| 20260905020511 | 83 | 226 | 2.0 | 7.0 | 0.00 | 0.00 | 0.00 | 57 | 1017.4 |
| 20260905020030 | 83 | 173 | 3.0 | 7.0 | 0.00 | 0.00 | 0.00 | 57 | 1017.3 |
| 20260905015506 | 83 | 227 | 3.0 | 7.0 | 0.00 | 0.00 | 0.00 | 57 | 1017.2 |
| 20260905015006 | 83 | 173 | 3.0 | 6.0 | 0.00 | 0.00 | 0.00 | 57 | 1017.1 |
| 20260905014515 | 83 | 214 | 2.0 | 5.0 | 0.00 | 0.00 | 0.00 | 57 | 1017.1 |
| 20260905014008 | 83 | 156 | 3.0 | 5.0 | 0.00 | 0.00 | 0.00 | 56 | 1017.1 |
| 20260905013508 | 84 | 185 | 2.0 | 5.0 | 0.00 | 0.00 | 0.00 | 56 | 1017.0 |
| 20260905013024 | 84 | 211 | 3.0 | 5.0 | 0.00 | 0.00 | 0.00 | 56 | 1017.1 |
| 20260905012510 | 84 | 216 | 2.0 | 4.0 | 0.00 | 0.00 | 0.00 | 57 | 1017.2 |
| 20260905012012 | 84 | 152 | 2.0 | 6.0 | 0.00 | 0.00 | 0.00 | 57 | 1017.1 |
| 20260905011529 | 85 | 188 | 2.0 | 6.0 | 0.00 | 0.00 | 0.00 | 57 | 1017.1 |
| 20260905011016 | 85 | 190 | 2.0 | 5.0 | 0.00 | 0.00 | 0.00 | 57 | 1017.0 |
| 20260905010513 | 85 | 209 | 2.0 | 5.0 | 0.00 | 0.00 | 0.00 | 56 | 1016.9 |